Regional Weather Roundup
Issued by NWS

Home | Current Version | Previous Version | Graphics & Text | Print | Product List | Glossary On
Versions: 1 2 3 4 5 6 7 8 9 10 11 12 13 14 15 16 17 18 19 20 21 22 23 24 25 26 27 28 29 30 31 32 33 34 35 36 37 38 39 40 41 42 43 44 45 46 47 48 49 50
000
ASUS43 KLSX 311607
RWRMO

WEATHER SUMMARY FOR MISSOURI
NATIONAL WEATHER SERVICE SPRINGFIELD MO
1100 AM CDT MON AUG 31 2015

NOTE: "FAIR" INDICATES FEW OR NO CLOUDS BELOW 12,000 FEET WITH NO
       SIGNIFICANT WEATHER AND/OR OBSTRUCTIONS TO VISIBILITY.
       CURRENT SKY AND/OR WEATHER CONDITIONS ARE NOT AVAILABLE FOR
       CHILLICOTHE AND FARMINGTON.

MOZ001>031-035>038-043-044-053-054-311700-
...NORTHERN AND WESTERN MISSOURI...

CITY           SKY/WX    TMP DP  RH WIND       PRES   REMARKS
KANSAS CTY INT MOSUNNY   82  72  71 SW10      30.00S
KANSAS C DTWN  SUNNY     84  72  67 S7        29.99S
LEE`S SUMMIT   SUNNY     81  69  67 S8        30.02R
ST JOSEPH      SUNNY     81  74  79 VRB5      29.99S
CHILLICOTHE      N/A     82  72  71 S7        30.01S
KIRKSVILLE     SUNNY     84  71  65 SE9       30.04S

$$
MOZ066>068-077>081-088>096-101>105-311700-
...SOUTHWEST MISSOURI...

CITY           SKY/WX    TMP DP  RH WIND       PRES   REMARKS
SPRINGFIELD    SUNNY     82  69  64 S13       30.07S
JOPLIN         SUNNY     82  68  62 SW12      30.05R

$$
MOZ032>034-039>042-045>050-055>058-069>072-311700-
...CENTRAL MISSOURI...

CITY           SKY/WX    TMP DP  RH WIND       PRES   REMARKS
COLUMBIA       SUNNY     82  71  69 SE8       30.06S
JEFFERSON CITY SUNNY     83  69  62 S6        30.04F
ROLLA          SUNNY     84  70  62 S10       30.07S
SEDALIA        SUNNY     84  69  60 S10       30.05S
WHITEMAN AFB   SUNNY     83  69  62 SW13      30.02R
WARRENSBURG    SUNNY     81  68  65 S8        30.02S
OSAGE BEACH    SUNNY     84  70  61 S8        30.07R

$$
MOZ051-052-059>065-311700-
...EAST CENTRAL MISSOURI...

CITY           SKY/WX    TMP DP  RH WIND       PRES   REMARKS
ST LOUIS INTL  MOSUNNY   84  69  60 S5        30.08S
SPIRIT OF STL  SUNNY     84  72  67 VRB3      30.06R
ST CHARLES     SUNNY     84  72  67 VRB7      30.06S

$$
MOZ072>076-082>087-097>100-106>115-311700-
...SOUTH CENTRAL AND SOUTHEAST MISSOURI...

CITY           SKY/WX    TMP DP  RH WIND       PRES   REMARKS
CAPE GIRARDEAU SUNNY     80  69  69 SW5       30.11S
FARMINGTON     SUNNY     81  73  78 S10       30.13S
POPLAR BLUFF   SUNNY     79  71  76 S7        30.10S
WEST PLAINS    SUNNY     79  70  74 S3        30.13S

$$


USA.gov is the U.S. government's official web portal to all federal, state and local government web resources and services.